Notices

What's New in latest Release from April 7th, 2021:

- Updated Glossary, including Speed of Maximum Gust, and Total Hourly Precipitation

- Updated national and regional climate services offices contacts and prices information

- Addition of station inventory lists for 1981-2010, 1971-2000, and 1961-1990 Normals.

If you haven't already, please take our survey and provide feedback about our website: https://eccc.sondage-survey.ca/f/LanguageSelection.aspx?s=442ca660-fcf1-47c0-95a9-59707d6fd709

Hourly Data Report for May 27, 2003

TORONTO CITY
ONTARIO

43°40'00.000" N
79°24'00.000" W
112.50 m
6158355
71508
XTO

Download Data

Hourly Data (May 2003)
Hourly Data Report for May 27, 2003
TIME
LST
Temp Definition
°C
Dew Point Definition
°C
Rel Hum Definition
%
Precip. Amount Definition
mm

Wind Dir Definition
10's deg

Wind Spd Definition
km/h
Visibility Definition
km
Stn Press Definition
kPa
Hmdx Definition


Wind Chill Definition


Weather Definition


00:00 12.2 8.9 80   LegendMM LegendMM LegendMM 100.28     LegendNANA
01:00 11.7 8.7 82   LegendMM LegendMM LegendMM 100.24     LegendNANA
02:00 10.9 8.7 86   LegendMM LegendMM LegendMM 100.23     LegendNANA
03:00 10.1 8.5 90   LegendMM LegendMM LegendMM 100.24     LegendNANA
04:00 9.9 8.7 92   LegendMM LegendMM LegendMM 100.24     LegendNANA
05:00 10.0 8.9 93   LegendMM LegendMM LegendMM 100.29     LegendNANA
06:00 10.2 9.4 95   LegendMM LegendMM LegendMM 100.31     LegendNANA
07:00 12.0 10.1 88   LegendMM LegendMM LegendMM 100.33     LegendNANA
08:00 13.8 10.6 81   LegendMM LegendMM LegendMM 100.35     LegendNANA
09:00 15.0 10.8 76   LegendMM LegendMM LegendMM 100.33     LegendNANA
10:00 15.0 10.4 74   LegendMM LegendMM LegendMM 100.33     LegendNANA
11:00 13.0 9.8 81   LegendMM LegendMM LegendMM 100.34     LegendNANA
12:00 14.5 10.3 76   LegendMM LegendMM LegendMM 100.33     LegendNANA
13:00 15.2 10.0 71   LegendMM LegendMM LegendMM 100.27     LegendNANA
14:00 13.3 8.6 73   LegendMM LegendMM LegendMM 100.25     LegendNANA
15:00 16.0 10.1 68   LegendMM LegendMM LegendMM 100.21     LegendNANA
16:00 17.2 9.1 59   LegendMM LegendMM LegendMM 100.15     LegendNANA
17:00 15.9 9.3 65   LegendMM LegendMM LegendMM 100.14     LegendNANA
18:00 16.3 8.3 59   LegendMM LegendMM LegendMM 100.09     LegendNANA
19:00 14.9 8.4 65   LegendMM LegendMM LegendMM 100.12     LegendNANA
20:00 13.8 9.3 74   LegendMM LegendMM LegendMM 100.12     LegendNANA
21:00 13.0 8.9 76   LegendMM LegendMM LegendMM 100.13     LegendNANA
22:00 12.8 9.1 78   LegendMM LegendMM LegendMM 100.09     LegendNANA
23:00 11.8 9.2 84   LegendMM LegendMM LegendMM 100.06     LegendNANA

Notes on Data Quality.

Legend

  • E = Estimated
  • M = Missing
  • NA = Not Available*
  • [empty] = Indicates an unobserved value
Date modified: